EW2310 Weather Reports


Display with metric or nautical units.
time (UTC)temp
F
wind
direction
speed
MPH
gust
MPH
rain 1hr
in
rain 24hr
in
rain mn
in
humidity
%
barometer
mb
20260903093039 87 302 1.0 10.0 0.00 0.00 0.00 45 1015.3
20260903092539 87 304 2.0 5.0 0.00 0.00 0.00 45 1015.3
20260903092039 87 327 0.0 6.0 0.00 0.00 0.00 45 1015.4
20260903091539 86 55 1.0 4.0 0.00 0.00 0.00 46 1015.4
20260903091042 86 340 4.0 8.0 0.00 0.00 0.00 45 1015.5
20260903090539 86 325 1.0 5.0 0.00 0.00 0.00 46 1015.5
20260903090039 85 5 0.0 9.0 0.00 0.00 0.00 48 1015.5
20260903085539 84 326 3.0 8.0 0.00 0.00 0.00 48 1015.4
20260903085039 84 319 6.0 6.0 0.00 0.00 0.00 48 1015.4
20260903084539 84 324 4.0 8.0 0.00 0.00 0.00 48 1015.4
20260903084039 84 15 0.0 5.0 0.00 0.00 0.00 49 1015.4
20260903083539 83 338 4.0 7.0 0.00 0.00 0.00 50 1015.4
20260903083042 83 335 4.0 9.0 0.00 0.00 0.00 50 1015.3
20260903082539 83 331 4.0 7.0 0.00 0.00 0.00 51 1015.2
20260903082039 82 322 4.0 8.0 0.00 0.00 0.00 50 1015.2
20260903081538 83 340 4.0 6.0 0.00 0.00 0.00 50 1015.2
20260903081038 82 317 2.0 8.0 0.00 0.00 0.00 52 1015.1
20260903080539 82 324 5.0 8.0 0.00 0.00 0.00 52 1015.1
20260903080039 82 5 4.0 9.0 0.00 0.00 0.00 52 1015.1
20260903075539 82 309 4.0 7.0 0.00 0.00 0.00 52 1015.1
20260903075039 82 290 1.0 10.0 0.00 0.00 0.00 53 1015.0
20260903074539 82 329 5.0 9.0 0.00 0.00 0.00 52 1015.1
20260903074039 81 327 3.0 8.0 0.00 0.00 0.00 54 1015.1
20260903073539 81 355 4.0 9.0 0.00 0.00 0.00 53 1015.0
20260903073038 82 330 8.0 9.0 0.00 0.00 0.00 53 1015.0
20260903072539 82 318 3.0 4.0 0.00 0.00 0.00 53 1015.0
20260903072039 81 319 1.0 8.0 0.00 0.00 0.00 54 1014.9
20260903071539 81 320 4.0 5.0 0.00 0.00 0.00 55 1014.8
20260903071039 80 337 3.0 7.0 0.00 0.00 0.00 55 1014.8
20260903070539 80 17 5.0 5.0 0.00 0.00 0.00 55 1014.9
20260903070039 79 355 0.0 6.0 0.00 0.00 0.00 56 1014.8
20260903065538 79 344 2.0 7.0 0.00 0.00 0.00 56 1014.9
20260903065039 79 54 2.0 5.0 0.00 0.00 0.00 56 1015.0
20260903064538 79 60 3.0 8.0 0.00 0.00 0.00 57 1014.8
20260903064042 78 57 3.0 5.0 0.00 0.00 0.00 58 1014.8
20260903063539 78 11 3.0 8.0 0.00 0.00 0.00 58 1014.8
20260903063039 78 32 4.0 8.0 0.00 0.00 0.00 58 1014.9
20260903062538 77 15 2.0 9.0 0.00 0.00 0.00 59 1014.8
20260903062042 76 0 4.0 9.0 0.00 0.00 0.00 60 1014.8
20260903061542 76 321 6.0 10.0 0.00 0.00 0.00 61 1014.7
20260903061039 75 333 4.0 9.0 0.00 0.00 0.00 62 1014.7
20260903060539 75 343 4.0 6.0 0.00 0.00 0.00 63 1014.7
20260903060039 75 355 3.0 12.0 0.00 0.00 0.00 63 1014.6
20260903055539 74 5 3.0 9.0 0.00 0.00 0.00 64 1014.7
20260903055039 74 330 9.0 11.0 0.00 0.00 0.00 64 1014.5
20260903054539 74 336 5.0 12.0 0.00 0.00 0.00 64 1014.6
20260903054039 74 346 9.0 11.0 0.00 0.00 0.00 65 1014.5
20260903053538 73 317 6.0 10.0 0.00 0.00 0.00 65 1014.5
20260903053038 73 317 5.0 10.0 0.00 0.00 0.00 65 1014.4
20260903052539 73 302 5.0 10.0 0.00 0.00 0.00 66 1014.4
20260903052038 73 318 5.0 11.0 0.00 0.00 0.00 66 1014.4
20260903051539 73 331 4.0 11.0 0.00 0.00 0.00 66 1014.4
20260903051038 72 10 7.0 12.0 0.00 0.00 0.00 66 1014.4
20260903050539 72 337 6.0 11.0 0.00 0.00 0.00 67 1014.3
20260903050038 72 318 5.0 10.0 0.00 0.00 0.00 67 1014.3
20260903045539 72 332 8.0 11.0 0.00 0.00 0.00 67 1014.3
20260903045039 72 327 6.0 11.0 0.00 0.00 0.00 67 1014.3
20260903044539 72 311 6.0 11.0 0.00 0.00 0.00 67 1014.2
20260903044038 73 311 5.0 12.0 0.00 0.00 0.00 67 1014.2
20260903043538 73 5 9.0 12.0 0.00 0.00 0.00 66 1014.1
20260903043039 73 323 10.0 12.0 0.00 0.00 0.00 66 1014.2
20260903042539 73 330 5.0 11.0 0.00 0.00 0.00 66 1014.1
20260903042038 73 317 4.0 10.0 0.00 0.00 0.00 67 1014.1
20260903041541 73 338 6.0 10.0 0.00 0.00 0.00 67 1014.1
20260903041038 73 336 5.0 10.0 0.00 0.00 0.00 68 1014.1
20260903040541 73 319 4.0 10.0 0.00 0.00 0.00 67 1014.2
20260903040038 73 0 4.0 9.0 0.00 0.00 0.00 67 1014.2
20260903035538 73 315 5.0 9.0 0.00 0.00 0.00 67 1014.2
20260903035038 73 325 8.0 9.0 0.00 0.00 0.00 67 1014.2
20260903034539 73 311 4.0 9.0 0.00 0.00 0.00 67 1014.3
20260903034039 73 322 6.0 8.0 0.00 0.00 0.00 67 1014.3
20260903033538 74 303 3.0 8.0 0.00 0.00 0.00 66 1014.3
20260903033042 74 321 5.0 9.0 0.00 0.00 0.00 66 1014.3
20260903032538 74 328 3.0 10.0 0.00 0.00 0.00 65 1014.3
20260903032042 74 329 6.0 9.0 0.00 0.00 0.00 65 1014.2
20260903031538 75 336 8.0 10.0 0.00 0.00 0.00 64 1014.3
20260903031039 75 331 6.0 8.0 0.00 0.00 0.00 64 1014.2
20260903030542 75 308 5.0 8.0 0.00 0.00 0.00 64 1014.3
20260903030038 75 331 4.0 10.0 0.00 0.00 0.00 65 1014.3
20260903025538 74 333 5.0 9.0 0.00 0.00 0.00 65 1014.4
20260903025038 74 342 4.0 9.0 0.00 0.00 0.00 65 1014.4
20260903024539 74 333 3.0 10.0 0.00 0.00 0.00 66 1014.4
20260903024042 74 312 4.0 10.0 0.00 0.00 0.00 67 1014.4
20260903023539 74 324 4.0 10.0 0.00 0.00 0.00 67 1014.5
20260903023038 74 346 9.0 9.0 0.00 0.00 0.00 67 1014.5
20260903022542 74 0 8.0 9.0 0.00 0.00 0.00 67 1014.5
20260903022044 74 311 4.0 10.0 0.00 0.00 0.00 68 1014.5
20260903021538 74 313 3.0 8.0 0.00 0.00 0.00 68 1014.6
20260903021040 74 284 3.0 9.0 0.00 0.00 0.00 68 1014.7
20260903020539 75 309 3.0 8.0 0.00 0.00 0.00 68 1014.7
20260903020039 75 336 5.0 8.0 0.00 0.00 0.00 68 1014.7
20260903015542 75 331 9.0 9.0 0.00 0.00 0.00 69 1014.7
20260903015038 75 331 4.0 8.0 0.00 0.00 0.00 69 1014.7
20260903014542 75 322 4.0 8.0 0.00 0.00 0.00 69 1014.7
20260903014039 75 309 4.0 8.0 0.00 0.00 0.00 69 1014.7
20260903013538 75 328 4.0 9.0 0.00 0.00 0.00 68 1014.6
20260903013038 75 328 8.0 8.0 0.00 0.00 0.00 68 1014.7
20260903012538 75 314 2.0 9.0 0.00 0.00 0.00 68 1014.7
20260903012039 75 336 3.0 9.0 0.00 0.00 0.00 67 1014.7
20260903011539 75 319 4.0 10.0 0.00 0.00 0.00 66 1014.7
20260903011038 75 315 3.0 8.0 0.00 0.00 0.00 66 1014.7
20260903010539 75 325 3.0 5.0 0.00 0.00 0.00 66 1014.8
20260903010038 76 319 3.0 8.0 0.00 0.00 0.00 65 1014.8
20260903005538 76 306 5.0 6.0 0.00 0.00 0.00 65 1014.8
20260903005041 76 315 3.0 5.0 0.00 0.00 0.00 65 1014.8
20260903004539 76 311 1.0 3.0 0.00 0.00 0.00 65 1014.9
20260903004038 76 317 0.0 3.0 0.00 0.00 0.00 64 1014.9
20260903003542 77 319 2.0 4.0 0.00 0.00 0.00 63 1014.9
20260903003039 77 323 2.0 4.0 0.00 0.00 0.00 63 1015.0
20260903002538 77 304 3.0 7.0 0.00 0.00 0.00 62 1014.9
20260903002039 77 298 3.0 6.0 0.00 0.00 0.00 61 1015.0
20260903001539 77 306 1.0 4.0 0.00 0.00 0.00 61 1015.0
20260903001038 77 313 1.0 4.0 0.00 0.00 0.00 61 1015.0
20260903000538 77 318 2.0 4.0 0.00 0.00 0.00 61 1015.0
20260903000038 77 304 1.0 4.0 0.00 0.00 0.00 62 1015.0
20260902235538 77 326 0.0 5.0 0.00 0.00 0.00 62 1015.0
20260902235038 77 325 1.0 4.0 0.00 0.00 0.00 63 1015.1
20260902234539 77 305 0.0 6.0 0.00 0.00 0.00 63 1015.1
20260902234038 77 324 4.0 5.0 0.00 0.00 0.00 64 1015.1
20260902233539 77 319 0.0 3.0 0.00 0.00 0.00 65 1015.1
20260902233041 77 317 0.0 2.0 0.00 0.00 0.00 65 1015.1
20260902232539 77 318 1.0 3.0 0.00 0.00 0.00 64 1015.2
20260902232039 77 308 0.0 2.0 0.00 0.00 0.00 65 1015.1
20260902231539 77 305 0.0 3.0 0.00 0.00 0.00 65 1015.1
20260902231038 78 313 0.0 4.0 0.00 0.00 0.00 65 1015.2
20260902230541 78 319 0.0 4.0 0.00 0.00 0.00 64 1015.3
20260902230041 78 319 2.0 1.0 0.00 0.00 0.00 65 1015.3
20260902225539 78 319 0.0 1.0 0.00 0.00 0.00 66 1015.3
20260902225039 78 319 0.0 1.0 0.00 0.00 0.00 66 1015.3
20260902224538 78 319 0.0 3.0 0.00 0.00 0.00 66 1015.2
20260902224042 78 313 3.0 3.0 0.00 0.00 0.00 67 1015.1
20260902223538 78 301 0.0 2.0 0.00 0.00 0.00 68 1015.2
20260902223038 78 300 0.0 3.0 0.00 0.00 0.00 69 1015.2
20260902222538 78 294 1.0 2.0 0.00 0.00 0.00 70 1015.2
20260902222039 78 288 0.0 2.0 0.00 0.00 0.00 71 1015.2
20260902221538 78 286 0.0 1.0 0.00 0.00 0.00 73 1015.3
20260902221039 78 273 0.0 1.0 0.00 0.00 0.00 73 1015.2
20260902220538 78 273 1.0 1.0 0.00 0.00 0.00 74 1015.2
20260902220038 78 271 0.0 1.0 0.00 0.00 0.00 74 1015.2
20260902215542 78 271 0.0 1.0 0.00 0.00 0.00 74 1015.3
20260902215038 78 268 0.0 1.0 0.00 0.00 0.00 75 1015.3
20260902214541 78 275 0.0 2.0 0.00 0.00 0.00 75 1015.3
20260902214041 78 271 0.0 1.0 0.00 0.00 0.00 75 1015.3
20260902213538 79 271 0.0 3.0 0.00 0.00 0.00 75 1015.3
20260902213038 79 273 0.0 2.0 0.00 0.00 0.00 74 1015.3
20260902212538 79 317 0.0 0.0 0.00 0.00 0.00 74 1015.3
20260902212038 79 317 0.0 0.0 0.00 0.00 0.00 73 1015.3
20260902211539 79 317 0.0 0.0 0.00 0.00 0.00 72 1015.3
20260902211039 79 317 0.0 0.0 0.00 0.00 0.00 72 1015.3
20260902210538 79 317 0.0 0.0 0.00 0.00 0.00 71 1015.3
20260902210039 79 317 0.0 0.0 0.00 0.00 0.00 70 1015.2
20260902205538 80 317 0.0 0.0 0.00 0.00 0.00 70 1015.2
20260902205038 80 317 0.0 1.0 0.00 0.00 0.00 70 1015.2
20260902204538 80 317 0.0 1.0 0.00 0.00 0.00 70 1015.2
20260902204041 80 317 0.0 1.0 0.00 0.00 0.00 70 1015.2
20260902203539 80 321 0.0 1.0 0.00 0.00 0.00 69 1015.3
20260902203039 80 321 0.0 0.0 0.00 0.00 0.00 68 1015.3
20260902202539 80 321 0.0 1.0 0.00 0.00 0.00 67 1015.4
20260902202038 80 321 0.0 0.0 0.00 0.00 0.00 67 1015.4
20260902201539 80 321 0.0 0.0 0.00 0.00 0.00 66 1015.5
20260902201038 80 321 0.0 0.0 0.00 0.00 0.00 66 1015.5
20260902200538 81 321 0.0 0.0 0.00 0.00 0.00 66 1015.5
20260902200038 81 321 0.0 0.0 0.00 0.00 0.00 66 1015.5
20260902195541 81 321 0.0 0.0 0.00 0.00 0.00 66 1015.4
20260902195039 81 321 0.0 0.0 0.00 0.00 0.00 65 1015.4
20260902194541 81 321 0.0 0.0 0.00 0.00 0.00 65 1015.3
20260902194038 81 321 0.0 1.0 0.00 0.00 0.00 65 1015.3
20260902193539 81 321 0.0 1.0 0.00 0.00 0.00 65 1015.3
20260902193038 81 321 0.0 1.0 0.00 0.00 0.00 65 1015.3
20260902192542 81 321 0.0 0.0 0.00 0.00 0.00 64 1015.3
20260902192039 81 321 0.0 1.0 0.00 0.00 0.00 64 1015.2
20260902191538 82 321 0.0 0.0 0.00 0.00 0.00 64 1015.3
20260902191039 82 321 0.0 0.0 0.00 0.00 0.00 64 1015.2
20260902190538 82 321 0.0 0.0 0.00 0.00 0.00 64 1015.2
20260902190041 82 321 0.0 1.0 0.00 0.00 0.00 63 1015.2
20260902185542 82 321 1.0 2.0 0.00 0.00 0.00 63 1015.1
20260902185039 82 323 0.0 4.0 0.00 0.00 0.00 63 1015.2
20260902184538 82 311 0.0 4.0 0.00 0.00 0.00 64 1015.2
20260902184039 82 300 0.0 1.0 0.00 0.00 0.00 65 1015.1
20260902183539 82 300 0.0 1.0 0.00 0.00 0.00 66 1015.1
20260902183038 82 299 0.0 1.0 0.00 0.00 0.00 65 1015.0
20260902182541 82 298 0.0 1.0 0.00 0.00 0.00 65 1014.9
20260902182041 82 297 0.0 4.0 0.00 0.00 0.00 64 1014.9
20260902181538 82 303 0.0 3.0 0.00 0.00 0.00 64 1014.8
20260902181039 82 285 0.0 1.0 0.00 0.00 0.00 66 1014.8
20260902180538 82 294 0.0 2.0 0.00 0.00 0.00 66 1014.9
20260902180038 82 313 0.0 4.0 0.00 0.00 0.00 67 1014.9
20260902175538 83 263 0.0 2.0 0.00 0.00 0.00 68 1014.9
20260902175041 83 225 0.0 3.0 0.00 0.00 0.00 67 1014.9
20260902174538 83 301 0.0 2.0 0.00 0.00 0.00 68 1014.7
20260902174038 83 281 0.0 2.0 0.00 0.00 0.00 67 1014.7
20260902173539 83 286 0.0 1.0 0.00 0.00 0.00 67 1014.8
20260902173041 83 311 0.0 3.0 0.00 0.00 0.00 67 1014.8
20260902172538 83 323 1.0 4.0 0.00 0.00 0.00 66 1014.8
20260902172038 83 275 0.0 1.0 0.00 0.00 0.00 65 1014.7
20260902171538 84 276 1.0 1.0 0.00 0.00 0.00 66 1014.7
20260902171038 84 273 0.0 2.0 0.00 0.00 0.00 66 1014.7
20260902170539 84 294 0.0 2.0 0.00 0.00 0.00 66 1014.8
20260902170039 84 304 1.0 3.0 0.00 0.00 0.00 67 1014.8
20260902165538 84 346 2.0 3.0 0.00 0.00 0.00 70 1014.7
20260902165038 84 45 1.0 5.0 0.00 0.00 0.00 70 1014.8
20260902164542 84 257 2.0 7.0 0.00 0.00 0.00 69 1014.9
20260902164038 84 327 1.0 5.0 0.00 0.00 0.00 69 1014.9
20260902163538 84 157 6.0 10.0 0.00 0.00 0.00 69 1014.9
20260902163039 84 155 0.0 8.0 0.00 0.00 0.00 69 1014.9
20260902162538 84 124 0.0 8.0 0.00 0.00 0.00 68 1014.7
20260902162038 84 277 1.0 3.0 0.00 0.00 0.00 67 1014.7
20260902161538 85 328 1.0 3.0 0.00 0.00 0.00 67 1014.7
20260902161039 85 286 1.0 4.0 0.00 0.00 0.00 67 1014.8
20260902160541 85 170 0.0 4.0 0.00 0.00 0.00 67 1014.8
20260902160041 85 267 1.0 5.0 0.00 0.00 0.00 66 1014.8
20260902155538 85 198 0.0 4.0 0.00 0.00 0.00 66 1014.8
20260902155040 85 152 2.0 6.0 0.00 0.00 0.00 65 1014.8
20260902154541 86 196 2.0 5.0 0.00 0.00 0.00 65 1014.7
20260902154038 86 227 0.0 6.0 0.00 0.00 0.00 62 1014.8
20260902153538 86 327 3.0 5.0 0.00 0.00 0.00 61 1014.8
20260902153038 87 216 0.0 4.0 0.00 0.00 0.00 61 1014.8
20260902152538 87 227 0.0 4.0 0.00 0.00 0.00 58 1014.8
20260902152038 87 264 1.0 4.0 0.00 0.00 0.00 60 1014.9
20260902151538 87 232 0.0 4.0 0.00 0.00 0.00 62 1014.9
20260902151038 87 130 1.0 4.0 0.00 0.00 0.00 61 1014.9
20260902150541 87 277 1.0 4.0 0.00 0.00 0.00 62 1015.0
20260902150038 87 247 1.0 3.0 0.00 0.00 0.00 63 1015.1
20260902145538 87 5 0.0 5.0 0.00 0.00 0.00 62 1015.1
20260902145039 87 184 1.0 7.0 0.00 0.00 0.00 62 1015.2
20260902144541 87 51 3.0 8.0 0.00 0.00 0.00 62 1015.1
20260902144038 87 15 2.0 5.0 0.00 0.00 0.00 64 1015.2
20260902143538 87 128 2.0 7.0 0.00 0.00 0.00 63 1015.2
20260902143038 87 189 3.0 7.0 0.00 0.00 0.00 62 1015.2
20260902142543 87 45 1.0 5.0 0.00 0.00 0.00 62 1015.2
20260902142038 87 46 2.0 7.0 0.00 0.00 0.00 60 1015.3
20260902141538 87 355 0.0 7.0 0.00 0.00 0.00 61 1015.3
20260902141038 87 286 3.0 9.0 0.00 0.00 0.00 60 1015.3
20260902140538 87 144 1.0 5.0 0.00 0.00 0.00 60 1015.3
20260902140038 87 355 4.0 7.0 0.00 0.00 0.00 59 1015.3
20260902135538 87 340 3.0 8.0 0.00 0.00 0.00 57 1015.4
20260902135038 87 282 7.0 7.0 0.00 0.00 0.00 57 1015.4
20260902134538 87 299 1.0 9.0 0.00 0.00 0.00 57 1015.4
20260902134038 87 54 2.0 8.0 0.00 0.00 0.00 55 1015.4
20260902133538 88 134 3.0 6.0 0.00 0.00 0.00 55 1015.5
20260902133038 88 52 4.0 6.0 0.00 0.00 0.00 53 1015.5
20260902132538 88 171 4.0 7.0 0.00 0.00 0.00 53 1015.5
20260902132041 88 158 2.0 5.0 0.00 0.00 0.00 51 1015.6
20260902131538 88 155 2.0 12.0 0.00 0.00 0.00 49 1015.7
20260902131038 88 67 3.0 8.0 0.00 0.00 0.00 50 1015.7
20260902130538 88 22 3.0 8.0 0.00 0.00 0.00 48 1015.7
20260902130038 88 128 2.0 8.0 0.00 0.00 0.00 48 1015.7
20260902125538 89 86 2.0 7.0 0.00 0.00 0.00 46 1015.9
20260902125038 89 307 0.0 10.0 0.00 0.00 0.00 45 1015.9
20260902124538 89 290 2.0 17.0 0.00 0.00 0.00 45 1015.8
20260902124038 89 236 11.0 17.0 0.00 0.00 0.00 43 1015.9
20260902123538 89 170 0.0 4.0 0.00 0.00 0.00 42 1016.0
20260902123038 89 192 0.0 10.0 0.00 0.00 0.00 41 1016.0
20260902122539 90 186 2.0 6.0 0.00 0.00 0.00 40 1016.0
20260902122038 89 234 2.0 4.0 0.00 0.00 0.00 41 1016.0
20260902121538 89 93 3.0 6.0 0.00 0.00 0.00 40 1016.0
20260902121038 89 67 2.0 10.0 0.00 0.00 0.00 41 1016.1
20260902120538 89 96 0.0 12.0 0.00 0.00 0.00 41 1016.0
20260902120038 89 309 4.0 9.0 0.00 0.00 0.00 39 1016.1
20260902115538 89 46 2.0 10.0 0.00 0.00 0.00 38 1016.1
20260902115038 90 199 3.0 9.0 0.00 0.00 0.00 37 1016.1
20260902114538 90 306 0.0 6.0 0.00 0.00 0.00 40 1016.0
20260902114038 89 157 2.0 5.0 0.00 0.00 0.00 40 1016.1
20260902113541 89 195 1.0 10.0 0.00 0.00 0.00 39 1016.1
20260902113038 89 225 5.0 9.0 0.00 0.00 0.00 41 1016.2
20260902112538 90 276 2.0 8.0 0.00 0.00 0.00 41 1016.2
20260902112038 90 5 0.0 5.0 0.00 0.00 0.00 41 1016.2
20260902111541 89 350 0.0 8.0 0.00 0.00 0.00 41 1016.3
20260902111038 89 209 2.0 7.0 0.00 0.00 0.00 42 1016.3
20260902110538 89 202 2.0 6.0 0.00 0.00 0.00 42 1016.3
20260902110038 89 199 1.0 9.0 0.00 0.00 0.00 42 1016.3
20260902105538 89 301 1.0 9.0 0.00 0.00 0.00 42 1016.3
20260902105038 89 240 1.0 8.0 0.00 0.00 0.00 44 1016.3
20260902104538 88 222 8.0 7.0 0.00 0.00 0.00 45 1016.4
20260902104041 89 190 2.0 7.0 0.00 0.00 0.00 45 1016.4
20260902103538 89 216 4.0 6.0 0.00 0.00 0.00 46 1016.4
20260902103041 89 89 0.0 8.0 0.00 0.00 0.00 47 1016.4
20260902102538 89 279 0.0 10.0 0.00 0.00 0.00 46 1016.5
20260902102038 89 205 2.0 6.0 0.00 0.00 0.00 46 1016.5
20260902101541 89 321 0.0 10.0 0.00 0.00 0.00 47 1016.5
20260902101038 89 188 1.0 8.0 0.00 0.00 0.00 46 1016.5
20260902100539 90 189 2.0 8.0 0.00 0.00 0.00 46 1016.5
20260902100039 89 188 1.0 11.0 0.00 0.00 0.00 46 1016.5
20260902095541 90 155 1.0 7.0 0.00 0.00 0.00 45 1016.4
20260902095038 90 210 3.0 8.0 0.00 0.00 0.00 43 1016.5
20260902094538 90 209 0.0 5.0 0.00 0.00 0.00 44 1016.4
20260902094038 90 169 2.0 4.0 0.00 0.00 0.00 44 1016.5
20260902093538 91 250 1.0 7.0 0.00 0.00 0.00 43 1016.5